Location: Brasstown
(34.8693°N, 83.8104°W)
Time: 15:23:07
(UTC-04:00)

Envisat - Visible Passes

Search period start: 31 October 2020 00:00
Search period end: 09 November 2020 23:00
Orbit: 764 x 766 km, 98.1° (Epoch: 31 October)

Date Brightness Start Highest point End Pass type
(mag) Time Alt. Az. Time Alt. Az. Time Alt. Az.
31 Oct 3.7 07:16:02 10° NNE 07:21:01 59° E 07:26:00 10° S visible
31 Oct 6.3 20:08:45 10° WSW 20:11:19 14° W 20:13:54 10° WNW visible
01 Nov 5.5 05:39:58 10° NE 05:44:05 25° E 05:48:11 10° SSE visible
01 Nov 4.9 18:29:43 10° SSW 18:34:16 33° W 18:38:49 10° NNW visible
03 Nov 4.3 06:04:47 10° NNE 06:09:38 45° E 06:14:27 10° S visible
03 Nov 6.0 18:56:25 10° SW 18:59:51 18° W 19:03:18 10° NW visible
04 Nov 5.9 05:29:05 10° NE 05:32:38 19° E 05:36:11 10° SE visible
04 Nov 4.4 18:18:03 10° S 18:22:50 43° W 18:27:40 10° NNW visible
05 Nov 3.1 06:30:00 10° NNE 06:35:05 85° E 06:40:09 10° SSW visible
06 Nov 4.8 05:53:36 10° NNE 05:58:13 35° E 06:02:48 10° SSE visible
06 Nov 5.6 18:44:23 10° SSW 18:48:23 24° W 18:52:25 10° NW visible
07 Nov 6.2 05:18:25 10° ENE 05:21:11 15° E 05:23:55 10° SE visible
07 Nov 3.8 18:06:29 10° S 18:11:26 57° W 18:16:26 10° NNW visible
08 Nov 3.5 06:18:40 10° NNE 06:23:43 65° E 06:28:43 10° S visible
08 Nov 6.3 19:11:55 10° WSW 19:14:02 13° W 19:16:09 10° WNW visible
09 Nov 5.3 05:42:31 10° NE 05:46:47 27° E 05:51:02 10° SSE visible
09 Nov 5.1 18:32:32 10° SSW 18:36:57 30° W 18:41:24 10° NW visible
